Location: Newark
(30.1000°N, 109.4667°E)
Time: 00:31:48
(UTC+00:00)

Vanguard 1 Rocket - Pass Details

Date: 27 February 2020
Orbit: 650 x 4226 km, 34.3° (Epoch: 06 April)

Event Time Altitude Azimuth Distance (km) Brightness Sun altitude
Exits shadow 20:47:12 47° 60° (ENE) 994 7.8 -31.7°
Drops below altitude 10° 20:50:30 10° 88° (E) 2,092 10.1 -31.0°
Sets 20:52:36 0° 92° (E) 2,952 11.2 -30.5°
